Starlink 5546

operational
NORAD ID: 55632 Int'l Des: 2023-021 Owner: SPXS Country: US Constellation: starlink
LEOCIRCULAR

Starlink 5546について

説明を読み込み中...

リアルタイム位置

3D地球を読み込み中...

次回通過

高度履歴

Altitude vs Time

uPlot chart will show altitude changes over time

軌道要素

1 55632U 23021E 26034.14585510 .00000465 00000-0 46795-4 0 9993
2 55632 69.9996 291.5610 0002780 264.7313 95.3529 14.98332699163128
Epoch: Feb 3, 2026 • Age: 26 hours

現在のステータス

高度 573.8 km
速度 7.57 km/s
衛星直下点 8.00°N, 117.03°W
打ち上げ日 Feb 17, 2023
運用期間 2.9 years
タイプ internet

技術仕様

分類 Payload
質量 305.00 kg
乾燥質量 290.00 kg
総質量 305.00 kg
長さ 0.20 m
直径 2.80 m
スパン 9.00 m
形状 Box + pan
製造者 SPXS
バスタイプ Starlink
フェーズステータス In Orbit
所有者/国 SPXS/US

大規模コンステレーション

Loading constellations...